Flight Briefing for CPX783

Departure Arrival
Noi Bai International Airport (VVNB)
Click to view FAA NOTAMS
Incheon International Airport (RKSI)
Click to view FAA NOTAMS
Departure Time Arrival Time
N/A N/A
Aircraft Distance
B767-300BDSF 1449nm
Departure METAR Arrival METAR
VVNB 261000Z 05007KT 010V110 2500 BR BKN009 21/20 Q1014 NOSIG RKSI 261000Z 35003KT 8000 NSC 07/03 Q1016 NOSIG
Suggested Route
BUNBO1A NAKHA R474 LON R474 GYA B330 POU A599 PUD A593 AKARA A326 IKADI A326 MUDAL A591 AGAVO G597 GONAV GONAV2M


View recent IFR Routes data
Notes



Charts and Procedures

Charts for VVNB
No chart available
Charts for RKSI
No chart available

Windy.com Weather Map